Location: Unspecified
(0.0000°N, 0.0000°E)
Time: 12:57:11
(UTC+00:00)

AO-7 - Pass Details

Date: 03 October 2021
Orbit: 1439 x 1459 km, 101.9° (Epoch: 16 October)

Event Time Altitude Azimuth Distance (km) Brightness Sun altitude
Rises 02:01:46 0° 60° (ENE) 4,521 ? -56.6°
Reaches altitude 10° 02:07:23 10° 92° (E) 3,547 ? -55.2°
Maximum altitude 02:09:39 11° 108° (ESE) 3,445 ? -54.7°
Drops below altitude 10° 02:11:55 10° 124° (SE) 3,551 ? -54.1°
Sets 02:17:30 0° 155° (SSE) 4,534 ? -52.7°
